[Date Prev][Date Next][Thread Prev][Thread Next] - [Date Index][Thread Index][Author Index]
2 Line ISS keps 5-20
- Subject: [sarex] 2 Line ISS keps 5-20
- From: "Dr Dave Larsen [ PhD ]" <doc@xxxxxxxxxxx>
- Date: Sun, 20 May 2001 03:05:29 -0700
ISS
1 25544U 98067A 01140.25093750 .00029139 00000-0 35495-3 0 9855
2 25544 51.5719 229.6201 0017544 66.3618 330.8569 15.60082109142714
----
Via the sarex mailing list at AMSAT.ORG courtesy of AMSAT-NA.
To unsubscribe, send "unsubscribe sarex" to Majordomo@amsat.org
AMSAT Home